Tracking 31027 objects as of 19-Jul-2025
HD Live streaming from Space Station
objects crossing your sky now

NAVSTAR 64 (USA 206)

Track NAVSTAR 64 (USA 206) now!
NAVSTAR 64 (USA 206) is classified as:


NORAD ID: 35752
Int'l Code: 2009-043A
Perigee: 20,040.3 km
Apogee: 20,336.6 km
Inclination: 56.0 °
Period: 717.9 minutes
Semi major axis: 26559 km
RCS: 6.3 m2 (large)
Launch date: August 17, 2009
Source: United States (US)
Launch site: AIR FORCE EASTERN TEST RANGE (AFETR)
PRN: 5
Your satellite tracking list
THORAD DELTA 1 DEB
Track 1 satellite(s)




NASA's NSSDC Master Catalog

Two Line Element Set (TLE):
1 35752U 09043A   25199.58644442 -.00000056  00000-0  00000-0 0  9993
2 35752  55.9879  40.5819 0055775  79.6654 290.8809  2.00573869116677
Source of the keplerian elements: AFSPC